This is the latest recevied weather packets stored in our database for station/object LZ1NAG-10. If no packets are shown the sender has not sent any weather packets the latest 10 day(s).
| Time | Temp. | Humidity | Pressure | Rain* | Wind** | Luminosity | Snow |
|---|---|---|---|---|---|---|---|
| 1777860155 | -2.22° C | 55% | 1023.8 hPa | - | - | - | - |
| 1777859255 | -2.22° C | 55% | 1024.1 hPa | - | - | - | - |
| 1777858353 | -2.22° C | 55% | 1024 hPa | - | - | - | - |
| 1777857453 | -1.67° C | 55% | 1023.8 hPa | - | - | - | - |
| 1777856553 | -1.67° C | 55% | 1023.9 hPa | - | - | - | - |
| 1777855653 | -1.67° C | 54% | 1023.8 hPa | - | - | - | - |
| 1777854753 | -1.67° C | 55% | 1023.8 hPa | - | - | - | - |
| 1777853853 | -1.67° C | 55% | 1023.8 hPa | - | - | - | - |
| 1777852952 | -1.67° C | 55% | 1023.8 hPa | - | - | - | - |
| 1777852052 | -1.67° C | 55% | 1023.7 hPa | - | - | - | - |
| 1777851152 | -1.11° C | 55% | 1023.8 hPa | - | - | - | - |
| 1777850252 | -1.11° C | 55% | 1023.9 hPa | - | - | - | - |
| 1777849352 | -1.11° C | 55% | 1023.9 hPa | - | - | - | - |
| 1777848452 | -1.11° C | 55% | 1023.8 hPa | - | - | - | - |
| 1777847552 | -0.56° C | 55% | 1024 hPa | - | - | - | - |
| 1777846651 | -1.11° C | 55% | 1024 hPa | - | - | - | - |
| 1777845751 | -0.56° C | 55% | 1024 hPa | - | - | - | - |
| 1777844851 | -0.56° C | 55% | 1024 hPa | - | - | - | - |
| 1777843951 | -0.56° C | 55% | 1024 hPa | - | - | - | - |
| 1777843051 | 0° C | 55% | 1024 hPa | - | - | - | - |
| 1777842151 | 0° C | 55% | 1024 hPa | - | - | - | - |
| 1777841250 | 0° C | 55% | 1024 hPa | - | - | - | - |
| 1777840350 | 0° C | 55% | 1024.1 hPa | - | - | - | - |
| 1777839450 | 0° C | 55% | 1024 hPa | - | - | - | - |
| 1777838550 | 0° C | 55% | 1024.1 hPa | - | - | - | - |
* Rain since midnight (hover to see other rain measurements)
** Current wind speed in m/s (hover to see current wind gust speed)